Location: Czu?�w
(50.1404°N, 18.9919°E)
Time: 12:02:57
(UTC+00:00)

ERS-2 - Pass Details

Date: 27 October 2020
Orbit: 493 x 498 km, 98.6° (Epoch: 24 November)

Event Time Altitude Azimuth Distance (km) Brightness Sun altitude
Rises 16:18:33 0° 16° (NNE) 2,589 5.5 -8.5°
Reaches altitude 10° 16:20:39 10° 19° (NNE) 1,702 4.5 -8.9°
Maximum altitude 16:24:18 72° 103° (ESE) 526 2.0 -9.5°
Drops below altitude 10° 16:27:55 10° 189° (S) 1,688 5.0 -10.0°
Sets 16:29:59 0° 192° (SSW) 2,566 6.0 -10.4°
